Tracking 34138 objects as of 15-May-2026
HD Live streaming from Space Station
objects crossing your sky now

STARLINK-37012

Track STARLINK-37012 now!
10-day predictions
STARLINK-37012 is classified as:


NORAD ID: 68221
Int'l Code: 2026-053Q
Perigee: 470.7 km
Apogee: 474.6 km
Inclination: 97.3 °
Period: 93.9 minutes
Semi major axis: 6843 km
RCS: Unknown
Launch date: March 17, 2026
Source: United States (US)
Launch site: AIR FORCE WESTERN TEST RANGE (AFWTR)
Your satellite tracking list
Your tracking list is empty




NASA's NSSDC Master Catalog

Two Line Element Set (TLE):
1 68221U 26053Q   26135.20834915  .00004527  00000-0  14240-3 0  9996
2 68221  97.2797  10.8241 0002789 150.5047 209.6354 15.33455761 10411
Source of the keplerian elements: AFSPC